Miscellaneous Local Product
Issued by NWS Hastings, NE

Home | Current Version | Previous Version | Text Only | Print | Product List | Glossary On
Versions: 1 2 3 4 5 6 7 8 9 10 11 12 13 14 15 16 17 18 19 20 21 22 23 24 25 26 27 28 29 30 31 32 33 34 35 36 37 38 39 40 41 42 43 44 45 46 47 48 49 50
883
AXUS43 KGID 081102
MISGRI

GID CWA HOURLY WEATHER ROUNDUP
NATIONAL WEATHER SERVICE HASTINGS NE
500 AM CST MON FEB 08 2016

NOTE: "FAIR" INDICATES FEW OR NO CLOUDS BELOW 12,000 FEET WITH NO
SIGNIFICANT WEATHER AND/OR OBSTRUCTIONS TO VISIBILITY.

...SOUTH CENTRAL NEBRASKA...

CITY           SKY/WX    TMP DP  RH WIND       PRES   REMARKS
GRAND ISLAND   CLEAR     29  17  61 NW26G35   30.11S WCI  14
HASTINGS       CLEAR     28  17  63 NW23      30.11S WCI  14
ORD            CLEAR     28  17  63 NW28G36   30.11S WCI  13
YORK           CLOUDY    30  21  69 NW32G47   30.05R WCI  15
AURORA         MOCLDY    29  19  63 NW36G43   30.09S WCI  13
LEXINGTON      CLEAR     28  16  58 NW21G29   30.19R WCI  15
HOLDREGE       CLEAR     29  15  57 NW25G31   30.16S WCI  14
HEBRON         CLOUDY    32  20  61 NW15G26   30.11S WCI  21

...NEBRASKA PANHANDLE...

CITY           SKY/WX    TMP DP  RH WIND       PRES   REMARKS
CHADRON        CLOUDY    25  13  60 W18       30.36R WCI  11
ALLIANCE       CLEAR     21  10  62 NW18      30.29R WCI   6
SCOTTSBLUFF    CLEAR     22  11  62 NW13      30.36R WCI  10
SIDNEY         CLOUDY    22  10  60 NW22      30.30S WCI   6

...WESTERN AND NORTH CENTRAL NEBRASKA...

CITY           SKY/WX    TMP DP  RH WIND       PRES   REMARKS
VALENTINE      CLEAR     26  16  65 NW24G31   30.22R WCI  11
AINSWORTH      CLEAR     27  16  63 NW29G38   30.18R WCI  11
ONEILL         MOCLDY    28  18  64 NW32G46   30.11R WCI  12
BROKEN BOW     CLEAR     28  15  58 NW31G39   30.15S WCI  12
IMPERIAL       CLEAR     24  11  57 NW16      30.29S WCI  11
NORTH PLATTE   CLEAR     22  12  65 W20       30.25R WCI   7
MCCOOK         CLEAR     25  13  60 NW20      30.26F WCI  11

...EASTERN NEBRASKA...

CITY           SKY/WX    TMP DP  RH WIND       PRES   REMARKS
NORFOLK        CLOUDY    28  17  63 NW31G41   30.04R WCI  12
SO SIOUX CITY  FLURRIES  27  17  66 N38G46    30.01R WCI   9
TEKAMAH        MIX PCPN  28  20  71 N30G41    30.02R WCI  12
COLUMBUS       CLOUDY    28  12  50 NW26G35   30.07R WCI  13
ALBION         CLOUDY    30  18  60 NW35G43   30.06R WCI  14
OMAHA EPPLEY   FLURRIES  29  21  72 NW23G38   29.99S WCI  15
OFFUTT AFB     FLURRIES  29  19  65 NW20G30   29.99S WCI  17
MILLARD        MOCLDY    31  18  58 NW16G30   30.01S WCI  19
LINCOLN        CLOUDY    30  23  75 N18G26    30.06S WCI  18
NEBRASKA CITY  CLOUDY    29  19  65 N25G32    30.01S WCI  15
BEATRICE       CLOUDY    32  22  66 NW25G35   30.05R WCI  19
FALLS CITY     CLOUDY    32  20  61 NW21G33   30.01R WCI  20

...NORTHERN KANSAS...

CITY           SKY/WX    TMP DP  RH WIND       PRES   REMARKS
GOODLAND       CLEAR     24   9  52 NW20      30.30F WCI  10
HILL CITY      CLEAR     27  15  61 NW21G30   30.26S WCI  13
NORTON         SUNNY     25  12  58 W21G28    30.23S WCI  10
PHILLIPSBURG   CLEAR     28  16  59 W15       30.22S WCI  17
SMITH CENTER   CLEAR     28  18  64 NW20      30.19S WCI  15
BELOIT         CLEAR     30  18  59 NW15G21   30.16F WCI  19
HAYS           CLEAR     30  10  43 NW23G30   30.24F WCI  17
RUSSELL        CLEAR     30  17  58 NW24      30.21F WCI  16
CONCORDIA      MOCLDY    33  18  53 NW15      30.13R WCI  23
SALINA         PTCLDY    34  17  50 NW22      30.17S WCI  22
TOPEKA         CLOUDY    36  16  44 NW18G26   30.04S WCI  26



USA.gov is the U.S. government's official web portal to all federal, state and local government web resources and services.